Content
SEND FEEDBACK

Daily
Averages
Monthly
Summary
Spain

PALMA, SPAIN


Home > Europe > Spain
Elevation: 26 feet     Latitude: 39 33N     Longitude: 002 44E

WEATHER
 
SELECT A DAY
Number of Records: 298,251;   Date Range: 7/1/96 - 9/21/14
 
SHARE

PRINT THIS DATA

[ ← Previous Day ]
WEATHER ALMANAC - NOVEMBER 5, 2013
[ Next Day → ]
[ °C ]   °F
Weather ElementAverageHighLow
Temperature72.2 °F78 °F (1:00 pm)66 °F (7:00 am)
Dewpoint55.2 °F62.6 °F (11:00 am)49 °F (1:00 am)
Humidity54.8 %73 % (9:00 am)36 % (7:00 pm)
Barometer29.80 in29.89 in (10:30 pm)29.74 in (12:30 am)
Wind Speed13.5 mph28.8 mph (11:30 pm)
Wind Gust46 mph (11:30 pm)
Weather ElementAverage
Visibility7.2 mi
Wind DirectionW (274.9 °)

Weather ElementTotal
Precipitation---
Cooling Degree Days7 (Base 65)
Growing Degree Days22 (Base 50)
Averaged from 51 records on November 5, 2013
WEATHER CONDITIONS BREAKOUT
WIND DIRECTION BREAKOUT
WEATHER BY HOUR - NOVEMBER 5, 2013
[ °C ]   °F
Local TimeTemperatureDewpointHumidityBarometerVisibilityWind DirectionWind SpeedGust SpeedPrecipitationEventsConditions
12:30 AM68.0 °F50.0 °F52 %29.74 in6.2 miNW (310°)23.0 mph35.7 mphPartly Cloudy
1:00 AM68.0 °F49.0 °F39 %29.77 in16.0 miWNW (300°)20.7 mphScattered Clouds
1:00 AM68.0 °F50.0 °F52 %29.77 in6.2 miWNW (300°)21.9 mph35.7 mphPartly Cloudy
1:30 AM68.0 °F50.0 °F52 %29.77 in6.2 miWNW (300°)21.9 mph33.4 mphPartly Cloudy
2:00 AM68.0 °F51.8 °F56 %29.77 in6.2 miWNW (300°)17.3 mph28.8 mphPartly Cloudy
2:30 AM68.0 °F50.0 °F52 %29.77 in6.2 miWNW (300°)18.4 mphPartly Cloudy
3:00 AM68.0 °F51.8 °F56 %29.77 in6.2 miWNW (290°)20.7 mph35.7 mphPartly Cloudy
3:30 AM68.0 °F50.0 °F52 %29.77 in6.2 miWNW (300°)11.5 mphPartly Cloudy
4:00 AM68.0 °F51.8 °F56 %29.74 in6.2 miWNW (300°)17.3 mph28.8 mphPartly Cloudy
4:30 AM66.2 °F51.8 °F60 %29.74 in6.2 miWNW (300°)21.9 mph34.5 mphPartly Cloudy
5:00 AM68.0 °F50.0 °F52 %29.74 in6.2 miWNW (300°)19.6 mph31.1 mphPartly Cloudy
5:30 AM68.0 °F51.8 °F56 %29.77 in6.2 miWNW (300°)17.3 mph29.9 mphPartly Cloudy
6:00 AM68.0 °F51.8 °F56 %29.77 in6.2 miWNW (290°)10.4 mphPartly Cloudy
6:30 AM66.2 °F51.8 °F60 %29.80 in6.2 miWNW (300°)8.1 mphPartly Cloudy
7:00 AM66.0 °F53.0 °F53 %29.80 in19.0 miWest (270°)3.5 mphPartly Cloudy
7:00 AM66.2 °F53.6 °F64 %29.80 in6.2 miWest (280°)3.5 mphScattered Clouds
7:30 AM68.0 °F53.6 °F60 %29.80 in6.2 miWest (270°)3.5 mphMostly Cloudy
8:00 AM68.0 °F57.2 °F68 %29.80 in6.2 miWSW (250°)8.1 mphMostly Cloudy
8:30 AM68.0 °F57.2 °F68 %29.80 in6.2 miWSW (250°)6.9 mphRainLight Rain
9:00 AM68.0 °F59.0 °F73 %29.83 in6.2 miWest (280°)6.9 mphRainLight Rain
9:30 AM68.0 °F59.0 °F73 %29.83 in6.2 miCalmRainLight Rain
10:00 AM68.0 °F59.0 °F73 %29.80 in6.2 miCalmRainLight Rain
10:30 AM69.8 °F60.8 °F73 %29.83 in6.2 miSW (230°)3.5 mphMostly Cloudy
11:00 AM71.6 °F62.6 °F73 %29.80 in6.2 miWSW (250°)11.5 mphMostly Cloudy
11:30 AM71.6 °F62.6 °F73 %29.80 in6.2 miWest (260°)16.1 mphMostly Cloudy
12:00 PM73.4 °F60.8 °F65 %29.80 in6.2 miWest (260°)15.0 mphMostly Cloudy
12:30 PM73.4 °F60.8 °F65 %29.80 in6.2 miWest (270°)15.0 mphMostly Cloudy
1:00 PM78.0 °F59.0 °F41 %29.80 in19.0 miWest (270°)15.0 mphPartly Cloudy
1:00 PM77.0 °F59.0 °F54 %29.80 in6.2 miWest (270°)13.8 mphMostly Cloudy
1:30 PM77.0 °F59.0 °F54 %29.80 in6.2 miWest (280°)15.0 mphScattered Clouds
2:00 PM77.0 °F55.4 °F47 %29.80 in6.2 miWNW (300°)20.7 mphPartly Cloudy
2:30 PM77.0 °F59.0 °F54 %29.80 in6.2 miWNW (290°)17.3 mphPartly Cloudy
3:00 PM77.0 °F57.2 °F50 %29.80 in6.2 miWNW (290°)17.3 mphPartly Cloudy
3:30 PM77.0 °F57.2 °F50 %29.80 in6.2 miWest (280°)13.8 mphPartly Cloudy
4:00 PM77.0 °F55.4 °F47 %29.80 in6.2 miWNW (290°)12.7 mph24.2 mphPartly Cloudy
4:30 PM77.0 °F55.4 °F47 %29.80 in6.2 miWest (280°)12.7 mph25.3 mphPartly Cloudy
5:00 PM77.0 °F55.4 °F47 %29.80 in6.2 miWNW (290°)11.5 mphPartly Cloudy
5:30 PM75.2 °F55.4 °F50 %29.80 in6.2 miWest (270°)8.1 mph20.7 mphPartly Cloudy
6:00 PM75.2 °F55.4 °F50 %29.80 in6.2 miWSW (240°)4.6 mphPartly Cloudy
6:30 PM75.2 °F55.4 °F50 %29.80 in6.2 miWest (270°)4.6 mphPartly Cloudy
7:00 PM76.0 °F54.0 °F36 %29.81 in16.0 miWNW (300°)16.1 mphScattered Clouds
7:00 PM77.0 °F53.6 °F44 %29.80 in6.2 miWNW (290°)13.8 mph26.5 mphPartly Cloudy
7:30 PM77.0 °F53.6 °F44 %29.80 in6.2 miWNW (290°)12.7 mphPartly Cloudy
8:00 PM77.0 °F53.6 °F44 %29.83 in6.2 miWNW (300°)20.7 mphPartly Cloudy
8:30 PM77.0 °F55.4 °F47 %29.83 in6.2 miNW (310°)20.7 mphPartly Cloudy
9:00 PM77.0 °F53.6 °F44 %29.83 in6.2 miNW (310°)17.3 mphPartly Cloudy
9:30 PM77.0 °F53.6 °F44 %29.86 in6.2 miWNW (300°)11.5 mph24.2 mphPartly Cloudy
10:00 PM77.0 °F55.4 °F47 %29.86 inWest (270°)4.6 mphClear
10:30 PM75.2 °F57.2 °F53 %29.89 inNW (320°)12.7 mphClear
11:00 PM73.4 °F59.0 °F61 %29.86 inNW (320°)19.6 mphClear
11:30 PM75.2 °F59.0 °F57 %29.83 inNNW (330°)28.8 mph46.0 mphClear
Hourly data recorded from LEPA, located miles away from Palma, Spain







STORIES FROM OUR PARTNERS